Location: The Jewett Observatory
(46.7288°N, 117.1525°W)
Time: 01:01:43
(UTC-07:00)

Meteor 1-28 Rocket - Visible Passes

Search period start: 29 August 2014 00:00
Search period end: 08 September 2014 00:00
Orbit: 516 x 534 km, 97.3° (Epoch: 25 August)

Date Brightness Start Highest point End Pass type
(mag) Time Alt. Az. Time Alt. Az. Time Alt. Az.
29 Aug 4.7 20:18:34 10° NE 20:21:21 19° E 20:24:07 10° SE visible
29 Aug 4.7 21:52:10 10° N 21:55:46 37° WNW 21:59:20 10° SW visible
30 Aug 5.0 20:07:16 10° ENE 20:09:22 14° E 20:11:27 10° ESE visible
30 Aug 4.1 21:40:10 10° N 21:43:57 50° WNW 21:47:12 13° SSW visible
31 Aug 3.5 21:28:13 10° N 21:32:05 70° WNW 21:34:59 17° SSW visible
01 Sep 3.1 21:16:19 10° NNE 21:20:13 86° ESE 21:22:45 21° SSW visible
02 Sep 3.2 21:04:28 10° NNE 21:08:19 62° E 21:10:31 24° S visible
02 Sep 6.3 22:40:17 10° NNW 22:42:06 13° WNW 22:43:55 10° W visible
03 Sep 3.5 20:52:40 10° NNE 20:56:24 45° E 20:58:17 25° SSE visible
03 Sep 6.1 22:27:49 10° NNW 22:30:20 17° WNW 22:32:50 10° WSW visible
04 Sep 3.9 20:40:56 10° NNE 20:44:28 33° E 20:46:03 23° SE visible
04 Sep 5.7 22:15:34 10° NNW 22:18:33 22° WNW 22:21:14 11° WSW visible
05 Sep 4.3 20:29:16 10° NE 20:32:30 25° E 20:33:48 21° SE visible
05 Sep 5.2 22:03:25 10° N 22:06:45 28° WNW 22:09:00 16° WSW visible
06 Sep 4.7 20:17:44 10° NE 20:20:31 19° E 20:21:34 17° ESE visible
06 Sep 4.7 21:51:20 10° N 21:54:55 37° WNW 21:56:45 23° WSW visible
07 Sep 5.0 20:06:25 10° ENE 20:08:30 14° E 20:09:18 13° ESE visible
07 Sep 4.1 21:39:19 10° N 21:43:05 50° WNW 21:44:29 32° SW visible
